﻿測定場所 (Monitoring sites),日付 (Measurement date),時間 (Measurement time),線量率 最大値 (max) μGy/h,線量率 最小値 (min) μGy/h,線量率 平均値 (average) μGy/h,
八王子 (Hachioji),2019-08-25,23:01～24:00,0.0333,0.0296,0.0312,
八王子 (Hachioji),2019-08-25,22:01～23:00,0.0341,0.0296,0.0311,
八王子 (Hachioji),2019-08-25,21:01～22:00,0.0332,0.0290,0.0313,
八王子 (Hachioji),2019-08-25,20:01～21:00,0.0329,0.0294,0.0310,
八王子 (Hachioji),2019-08-25,19:01～20:00,0.0342,0.0292,0.0310,
八王子 (Hachioji),2019-08-25,18:01～19:00,0.0333,0.0283,0.0310,
八王子 (Hachioji),2019-08-25,17:01～18:00,0.0337,0.0298,0.0315,
八王子 (Hachioji),2019-08-25,16:01～17:00,0.0330,0.0294,0.0312,
八王子 (Hachioji),2019-08-25,15:01～16:00,0.0329,0.0289,0.0310,
八王子 (Hachioji),2019-08-25,14:01～15:00,0.0329,0.0294,0.0311,
八王子 (Hachioji),2019-08-25,13:01～14:00,0.0323,0.0289,0.0310,
八王子 (Hachioji),2019-08-25,12:01～13:00,0.0331,0.0289,0.0312,
八王子 (Hachioji),2019-08-25,11:01～12:00,0.0334,0.0291,0.0310,
八王子 (Hachioji),2019-08-25,10:01～11:00,0.0339,0.0289,0.0312,
八王子 (Hachioji),2019-08-25,09:01～10:00,0.0334,0.0290,0.0309,
八王子 (Hachioji),2019-08-25,08:01～09:00,0.0326,0.0289,0.0308,
八王子 (Hachioji),2019-08-25,07:01～08:00,0.0336,0.0282,0.0311,
八王子 (Hachioji),2019-08-25,06:01～07:00,0.0333,0.0287,0.0310,
八王子 (Hachioji),2019-08-25,05:01～06:00,0.0325,0.0294,0.0310,
八王子 (Hachioji),2019-08-25,04:01～05:00,0.0331,0.0291,0.0310,
八王子 (Hachioji),2019-08-25,03:01～04:00,0.0331,0.0291,0.0311,
八王子 (Hachioji),2019-08-25,02:01～03:00,0.0343,0.0300,0.0319,
八王子 (Hachioji),2019-08-25,01:01～02:00,0.0366,0.0313,0.0340,
八王子 (Hachioji),2019-08-25,00:01～01:00,0.0386,0.0320,0.0351,
八王子 (Hachioji),2019-08-24,23:01～24:00,0.0334,0.0295,0.0314,
八王子 (Hachioji),2019-08-24,22:01～23:00,0.0330,0.0289,0.0311,
八王子 (Hachioji),2019-08-24,21:01～22:00,0.0333,0.0290,0.0313,
八王子 (Hachioji),2019-08-24,20:01～21:00,0.0338,0.0292,0.0316,
八王子 (Hachioji),2019-08-24,19:01～20:00,0.0329,0.0289,0.0310,
八王子 (Hachioji),2019-08-24,18:01～19:00,0.0330,0.0291,0.0309,
八王子 (Hachioji),2019-08-24,17:01～18:00,0.0329,0.0286,0.0307,
八王子 (Hachioji),2019-08-24,16:01～17:00,0.0334,0.0292,0.0308,
八王子 (Hachioji),2019-08-24,15:01～16:00,0.0333,0.0286,0.0308,
八王子 (Hachioji),2019-08-24,14:01～15:00,0.0325,0.0288,0.0307,
八王子 (Hachioji),2019-08-24,13:01～14:00,0.0330,0.0285,0.0308,
八王子 (Hachioji),2019-08-24,12:01～13:00,0.0325,0.0292,0.0310,
八王子 (Hachioji),2019-08-24,11:01～12:00,0.0334,0.0292,0.0313,
八王子 (Hachioji),2019-08-24,10:01～11:00,0.0333,0.0291,0.0312,
八王子 (Hachioji),2019-08-24,09:01～10:00,0.0336,0.0295,0.0314,
八王子 (Hachioji),2019-08-24,08:01～09:00,0.0346,0.0299,0.0322,
八王子 (Hachioji),2019-08-24,07:01～08:00,0.0335,0.0298,0.0320,
八王子 (Hachioji),2019-08-24,06:01～07:00,0.0345,0.0296,0.0323,
八王子 (Hachioji),2019-08-24,05:01～06:00,0.0363,0.0308,0.0338,
八王子 (Hachioji),2019-08-24,04:01～05:00,0.0357,0.0315,0.0333,
八王子 (Hachioji),2019-08-24,03:01～04:00,0.0367,0.0314,0.0339,
八王子 (Hachioji),2019-08-24,02:01～03:00,0.0354,0.0314,0.0335,
八王子 (Hachioji),2019-08-24,01:01～02:00,0.0354,0.0286,0.0323,
八王子 (Hachioji),2019-08-24,00:01～01:00,0.0340,0.0295,0.0314,
八王子 (Hachioji),2019-08-23,23:01～24:00,0.0341,0.0299,0.0318,
八王子 (Hachioji),2019-08-23,22:01～23:00,0.0337,0.0303,0.0317,
八王子 (Hachioji),2019-08-23,21:01～22:00,0.0330,0.0289,0.0312,
八王子 (Hachioji),2019-08-23,20:01～21:00,0.0332,0.0292,0.0312,
八王子 (Hachioji),2019-08-23,19:01～20:00,0.0330,0.0282,0.0306,
八王子 (Hachioji),2019-08-23,18:01～19:00,0.0327,0.0286,0.0306,
八王子 (Hachioji),2019-08-23,17:01～18:00,0.0339,0.0293,0.0312,
八王子 (Hachioji),2019-08-23,16:01～17:00,0.0351,0.0287,0.0330,
八王子 (Hachioji),2019-08-23,15:01～16:00,0.0370,0.0324,0.0347,
八王子 (Hachioji),2019-08-23,14:01～15:00,0.0341,0.0303,0.0326,
八王子 (Hachioji),2019-08-23,13:01～14:00,0.0333,0.0302,0.0320,
八王子 (Hachioji),2019-08-23,12:01～13:00,0.0362,0.0303,0.0334,
八王子 (Hachioji),2019-08-23,11:01～12:00,0.0410,0.0336,0.0364,
八王子 (Hachioji),2019-08-23,10:01～11:00,0.0410,0.0339,0.0372,
八王子 (Hachioji),2019-08-23,09:01～10:00,0.0394,0.0338,0.0361,
八王子 (Hachioji),2019-08-23,08:01～09:00,0.0366,0.0302,0.0332,
八王子 (Hachioji),2019-08-23,07:01～08:00,0.0344,0.0291,0.0322,
八王子 (Hachioji),2019-08-23,06:01～07:00,0.0345,0.0297,0.0320,
八王子 (Hachioji),2019-08-23,05:01～06:00,0.0328,0.0276,0.0300,
八王子 (Hachioji),2019-08-23,04:01～05:00,0.0319,0.0280,0.0299,
八王子 (Hachioji),2019-08-23,03:01～04:00,0.0325,0.0284,0.0300,
八王子 (Hachioji),2019-08-23,02:01～03:00,0.0329,0.0280,0.0303,
八王子 (Hachioji),2019-08-23,01:01～02:00,0.0327,0.0287,0.0304,
八王子 (Hachioji),2019-08-23,00:01～01:00,0.0324,0.0277,0.0301,
八王子 (Hachioji),2019-08-22,23:01～24:00,0.0331,0.0280,0.0303,
八王子 (Hachioji),2019-08-22,22:01～23:00,0.0326,0.0288,0.0303,
八王子 (Hachioji),2019-08-22,21:01～22:00,0.0322,0.0288,0.0306,
八王子 (Hachioji),2019-08-22,20:01～21:00,0.0333,0.0285,0.0305,
八王子 (Hachioji),2019-08-22,19:01～20:00,0.0336,0.0291,0.0310,
八王子 (Hachioji),2019-08-22,18:01～19:00,0.0330,0.0289,0.0306,
八王子 (Hachioji),2019-08-22,17:01～18:00,0.0330,0.0287,0.0308,
八王子 (Hachioji),2019-08-22,16:01～17:00,0.0327,0.0282,0.0305,
八王子 (Hachioji),2019-08-22,15:01～16:00,0.0328,0.0286,0.0307,
八王子 (Hachioji),2019-08-22,14:01～15:00,0.0324,0.0290,0.0307,
八王子 (Hachioji),2019-08-22,13:01～14:00,0.0321,0.0288,0.0307,
八王子 (Hachioji),2019-08-22,12:01～13:00,0.0327,0.0283,0.0304,
八王子 (Hachioji),2019-08-22,11:01～12:00,0.0329,0.0289,0.0306,
八王子 (Hachioji),2019-08-22,10:01～11:00,0.0334,0.0291,0.0310,
八王子 (Hachioji),2019-08-22,09:01～10:00,0.0348,0.0293,0.0323,
八王子 (Hachioji),2019-08-22,08:01～09:00,0.0334,0.0286,0.0308,
八王子 (Hachioji),2019-08-22,07:01～08:00,0.0331,0.0289,0.0307,
八王子 (Hachioji),2019-08-22,06:01～07:00,0.0331,0.0286,0.0315,
八王子 (Hachioji),2019-08-22,05:01～06:00,0.0338,0.0293,0.0313,
八王子 (Hachioji),2019-08-22,04:01～05:00,0.0349,0.0302,0.0329,
八王子 (Hachioji),2019-08-22,03:01～04:00,0.0351,0.0299,0.0327,
八王子 (Hachioji),2019-08-22,02:01～03:00,0.0328,0.0283,0.0306,
八王子 (Hachioji),2019-08-22,01:01～02:00,0.0327,0.0287,0.0306,
八王子 (Hachioji),2019-08-22,00:01～01:00,0.0326,0.0287,0.0310,
八王子 (Hachioji),2019-08-21,23:01～24:00,0.0320,0.0285,0.0306,
八王子 (Hachioji),2019-08-21,22:01～23:00,0.0325,0.0287,0.0302,
八王子 (Hachioji),2019-08-21,21:01～22:00,0.0315,0.0273,0.0299,
八王子 (Hachioji),2019-08-21,20:01～21:00,0.0322,0.0280,0.0301,
八王子 (Hachioji),2019-08-21,19:01～20:00,0.0326,0.0283,0.0301,
八王子 (Hachioji),2019-08-21,18:01～19:00,0.0322,0.0279,0.0303,
八王子 (Hachioji),2019-08-21,17:01～18:00,0.0324,0.0287,0.0305,
八王子 (Hachioji),2019-08-21,16:01～17:00,0.0324,0.0275,0.0299,
八王子 (Hachioji),2019-08-21,15:01～16:00,0.0323,0.0279,0.0304,
八王子 (Hachioji),2019-08-21,14:01～15:00,0.0321,0.0283,0.0302,
八王子 (Hachioji),2019-08-21,13:01～14:00,0.0317,0.0282,0.0301,
八王子 (Hachioji),2019-08-21,12:01～13:00,0.0328,0.0283,0.0302,
八王子 (Hachioji),2019-08-21,11:01～12:00,0.0320,0.0281,0.0301,
八王子 (Hachioji),2019-08-21,10:01～11:00,0.0324,0.0275,0.0302,
八王子 (Hachioji),2019-08-21,09:01～10:00,0.0323,0.0282,0.0301,
八王子 (Hachioji),2019-08-21,08:01～09:00,0.0330,0.0282,0.0304,
八王子 (Hachioji),2019-08-21,07:01～08:00,0.0323,0.0286,0.0304,
八王子 (Hachioji),2019-08-21,06:01～07:00,0.0319,0.0287,0.0302,
八王子 (Hachioji),2019-08-21,05:01～06:00,0.0323,0.0282,0.0303,
八王子 (Hachioji),2019-08-21,04:01～05:00,0.0330,0.0291,0.0304,
八王子 (Hachioji),2019-08-21,03:01～04:00,0.0332,0.0283,0.0303,
八王子 (Hachioji),2019-08-21,02:01～03:00,0.0321,0.0278,0.0301,
八王子 (Hachioji),2019-08-21,01:01～02:00,0.0321,0.0284,0.0299,
八王子 (Hachioji),2019-08-21,00:01～01:00,0.0327,0.0282,0.0303,
八王子 (Hachioji),2019-08-20,23:01～24:00,0.0329,0.0270,0.0300,
八王子 (Hachioji),2019-08-20,22:01～23:00,0.0321,0.0280,0.0298,
八王子 (Hachioji),2019-08-20,21:01～22:00,0.0329,0.0273,0.0299,
八王子 (Hachioji),2019-08-20,20:01～21:00,0.0326,0.0285,0.0299,
八王子 (Hachioji),2019-08-20,19:01～20:00,0.0324,0.0289,0.0307,
八王子 (Hachioji),2019-08-20,18:01～19:00,0.0363,0.0304,0.0329,
八王子 (Hachioji),2019-08-20,17:01～18:00,0.0452,0.0342,0.0395,
八王子 (Hachioji),2019-08-20,16:01～17:00,0.0486,0.0281,0.0368,
八王子 (Hachioji),2019-08-20,15:01～16:00,0.0314,0.0284,0.0298,
八王子 (Hachioji),2019-08-20,14:01～15:00,0.0315,0.0272,0.0298,
八王子 (Hachioji),2019-08-20,13:01～14:00,0.0322,0.0280,0.0299,
八王子 (Hachioji),2019-08-20,12:01～13:00,0.0327,0.0282,0.0301,
八王子 (Hachioji),2019-08-20,11:01～12:00,0.0330,0.0280,0.0301,
八王子 (Hachioji),2019-08-20,10:01～11:00,0.0320,0.0280,0.0301,
八王子 (Hachioji),2019-08-20,09:01～10:00,0.0324,0.0281,0.0303,
八王子 (Hachioji),2019-08-20,08:01～09:00,0.0323,0.0281,0.0303,
八王子 (Hachioji),2019-08-20,07:01～08:00,0.0318,0.0274,0.0301,
八王子 (Hachioji),2019-08-20,06:01～07:00,0.0333,0.0283,0.0302,
八王子 (Hachioji),2019-08-20,05:01～06:00,0.0332,0.0290,0.0310,
八王子 (Hachioji),2019-08-20,04:01～05:00,0.0354,0.0296,0.0325,
八王子 (Hachioji),2019-08-20,03:01～04:00,0.0407,0.0333,0.0367,
八王子 (Hachioji),2019-08-20,02:01～03:00,0.0449,0.0370,0.0405,
八王子 (Hachioji),2019-08-20,01:01～02:00,0.0404,0.0304,0.0344,
八王子 (Hachioji),2019-08-20,00:01～01:00,0.0365,0.0306,0.0331,
八王子 (Hachioji),2019-08-19,23:01～24:00,0.0497,0.0340,0.0410,
八王子 (Hachioji),2019-08-19,22:01～23:00,0.0588,0.0487,0.0538,
八王子 (Hachioji),2019-08-19,21:01～22:00,0.0573,0.0442,0.0503,
八王子 (Hachioji),2019-08-19,20:01～21:00,0.0486,0.0302,0.0372,
八王子 (Hachioji),2019-08-19,19:01～20:00,0.0336,0.0295,0.0315,
八王子 (Hachioji),2019-08-19,18:01～19:00,0.0338,0.0298,0.0316,
八王子 (Hachioji),2019-08-19,17:01～18:00,0.0328,0.0293,0.0314,
八王子 (Hachioji),2019-08-19,16:01～17:00,0.0337,0.0289,0.0314,
八王子 (Hachioji),2019-08-19,15:01～16:00,0.0337,0.0290,0.0313,
八王子 (Hachioji),2019-08-19,14:01～15:00,0.0329,0.0295,0.0314,
八王子 (Hachioji),2019-08-19,13:01～14:00,0.0349,0.0286,0.0314,
八王子 (Hachioji),2019-08-19,12:01～13:00,0.0335,0.0287,0.0314,
八王子 (Hachioji),2019-08-19,11:01～12:00,0.0336,0.0289,0.0316,
八王子 (Hachioji),2019-08-19,10:01～11:00,0.0339,0.0303,0.0317,
八王子 (Hachioji),2019-08-19,09:01～10:00,0.0339,0.0293,0.0316,
八王子 (Hachioji),2019-08-19,08:01～09:00,0.0340,0.0296,0.0316,
八王子 (Hachioji),2019-08-19,07:01～08:00,0.0344,0.0298,0.0325,
八王子 (Hachioji),2019-08-19,06:01～07:00,0.0348,0.0307,0.0327,
八王子 (Hachioji),2019-08-19,05:01～06:00,0.0346,0.0303,0.0326,
八王子 (Hachioji),2019-08-19,04:01～05:00,0.0346,0.0307,0.0329,
八王子 (Hachioji),2019-08-19,03:01～04:00,0.0350,0.0310,0.0332,
八王子 (Hachioji),2019-08-19,02:01～03:00,0.0361,0.0315,0.0332,
八王子 (Hachioji),2019-08-19,01:01～02:00,0.0352,0.0309,0.0332,
八王子 (Hachioji),2019-08-19,00:01～01:00,0.0347,0.0301,0.0327,
